Location: *
(45.2667°S, 177.6000°W)
Time: 00:35:29
(UTC+00:00)

Daily predictions for brighter satellites

Satellite Brightness Start Highest point End
(mag) Time Altitude Azimuth Time Altitude Azimuth Time Altitude Azimuth
Cosmos 1850 Rocket 4.0 04:49:43 10° SSW 04:55:01 82° ESE 05:00:18 10° NNE
COSMO-SKYMED 1 2.6 04:54:55 10° NNE 04:59:17 81° ESE 05:03:45 10° S
CZ-2C R/B 4.0 04:55:24 10° N 05:00:49 47° W 05:06:15 10° SSW
BREEZE-M DEB (TANK) 3.2 04:49:45 10° WSW 05:01:22 78° SSE 05:05:04 10° ENE
USA 308 4.2 04:58:24 10° SW 05:01:59 25° S 05:05:32 10° ESE
Cosmos 1656 3.8 04:56:40 10° SSW 05:02:23 59° ESE 05:08:01 10° NE
Cosmos 1452 Rocket 3.8 05:01:08 10° NNW 05:06:25 75° WSW 05:11:46 10° SSE
Cosmos 1340 Rocket 3.8 05:04:15 10° NNE 05:07:40 27° E 05:11:08 10° SSE
ADEOS 4.3 05:09:20 10° SSE 05:14:06 33° E 05:18:49 10° NNE
Cosmos 2058 3.1 05:10:07 10° N 05:14:21 80° W 05:18:36 10° S
Cosmos 1980 Rocket 3.3 05:10:40 10° S 05:15:03 22° SE 05:19:26 10° E
Cosmos 1812 4.4 05:13:51 10° SE 05:15:54 14° ESE 05:17:56 10° E
H-2A R/B 3.1 05:12:29 10° SE 05:16:19 22° E 05:20:06 10° NE
Cosmos 1953 Rocket 3.6 05:13:43 10° N 05:18:10 85° E 05:22:38 10° S
Envisat 4.2 05:14:00 10° S 05:18:53 44° WSW 05:23:42 10° NW
Lacrosse 5 3.5 05:16:49 10° WSW 05:20:52 23° S 05:24:44 11° SE
H-2A R/B 4.3 05:18:24 10° S 05:21:59 37° WSW 05:25:34 10° NW
SMAP 4.1 05:19:01 10° SE 05:22:55 25° E 05:26:46 10° NNE
SeaSat 1 4.5 05:19:09 10° S 05:22:57 22° SW 05:26:45 10° W
Cosmos 2082 Rocket 3.5 05:19:52 10° NE 05:23:42 19° E 05:26:12 14° ESE
Cosmos 1939 Rocket 3.1 05:20:17 10° SSE 05:24:05 44° E 05:27:47 10° N
NOAA 11 4.4 05:20:05 10° S 05:25:36 76° WSW 05:31:05 10° NNW
CZ-4B R/B 4.1 05:21:05 10° SSE 05:25:39 88° ENE 05:30:03 10° NNW
Cosmos 1933 4.1 05:22:54 10° S 05:26:35 31° ESE 05:30:13 10° NE
USA 305 4.0 05:23:19 10° SW 05:27:02 29° SSE 05:29:31 17° ESE
Cosmos 968 Rocket 3.7 05:22:34 10° SSW 05:27:45 48° ESE 05:32:51 10° NE
Lacrosse 4 Rocket 2.7 05:24:05 10° WNW 05:28:03 39° SW 05:32:10 10° SSE
ATLAS 2AS CENTAUR R/B 2.8 05:23:52 10° SW 05:30:51 65° SE 05:38:17 10° NE
Cosmos 2360 4.4 05:25:38 10° SSW 05:31:14 48° ESE 05:36:45 10° NE
Meteor 1-31 Rocket 2.9 05:28:16 10° S 05:32:16 81° WSW 05:36:14 10° NNW
Meteor PRIRODA 4.4 05:30:59 12° SE 05:34:03 33° E 05:37:25 10° NNE
CZ-4B R/B 3.6 05:33:17 17° SE 05:35:23 28° E 05:38:40 10° NNE
Cosmos 1697 Rocket 2.8 05:30:05 10° SSW 05:35:40 53° ESE 05:41:13 10° NE
Cosmos 1782 3.5 05:33:10 10° SSE 05:36:46 30° ESE 05:40:17 10° NE
Cosmos 2151 3.7 05:32:53 10° NNE 05:36:47 33° E 05:40:44 10° SSE
BREEZE-M DEB (TANK) 2.9 05:38:37 10° WNW 05:43:50 59° SSW 05:45:07 27° SE
Lacrosse 5 rocket 3.3 05:43:09 10° SW 05:45:46 16° S 05:47:36 13° SSE
Cosmos 1842 Rocket 3.5 05:43:47 10° S 05:48:21 87° ESE 05:52:48 10° N
COSMOS 2406 3.5 05:44:27 10° N 05:49:50 44° ENE 05:53:39 19° SE
Landsat 5 3.6 05:48:19 10° NNE 05:52:51 88° ESE 05:57:20 10° SSW
NOAA 6 4.5 05:53:00 14° SSE 05:57:02 39° E 06:01:50 10° NNE
Cosmos 1076 Rocket 3.4 05:54:06 10° N 05:58:29 78° E 06:02:55 10° SSE
SL-16 R/B 3.8 05:55:07 10° S 05:58:02 16° SE 05:58:02 16° SE
CZ-4C R/B 2.8 05:57:18 10° NNE 06:00:26 57° ESE 06:03:42 10° S
CORIOLIS 4.3 05:56:37 10° SSE 06:01:59 50° E 06:07:19 10° N
Cosmos 1000 Rocket 4.4 05:56:55 10° N 06:03:04 78° E 06:09:21 10° S
RESURS DK-1 3.6 05:59:57 10° S 06:02:47 25° SSE 06:02:47 25° SSE
Meteor 2-3 Rocket 3.6 05:58:04 10° N 06:03:41 80° E 06:09:25 10° SSE
USA 281 3.2 05:59:47 10° SSE 06:06:26 63° ENE 06:12:58 10° NNW
H-2A R/B 3.9 06:10:08 17° SSE 06:10:08 17° SSE 06:11:27 10° S
USA 215 3.7 06:01:40 10° NE 06:08:12 63° NW 06:14:47 10° SW
USA 306 3.5 06:05:18 10° SW 06:09:17 38° SSE 06:09:51 36° SE
Cosmos 2221 3.9 06:05:28 10° SSW 06:09:42 43° W 06:13:52 10° NNW
USA 307 3.6 06:07:45 10° SW 06:11:42 36° SSE 06:12:07 35° SE
Cosmos 1302 Rocket 4.3 06:10:50 10° NNW 06:16:03 67° WSW 06:20:56 12° SSE
Cosmos 2278 4.1 06:13:11 10° SSW 06:18:32 38° SE 06:19:04 37° ESE
Meteor 1-26 Rocket 4.4 06:15:38 10° SSW 06:21:47 85° W 06:27:49 10° N
Cosmos 1833 Rocket 3.0 06:18:09 10° NW 06:23:46 65° WSW 06:28:18 17° SSE
Cosmos 1486 Rocket 3.9 06:21:16 10° SSW 06:26:40 72° ESE 06:31:13 14° NNE
Cosmos 2360 Rocket 4.3 06:24:29 10° S 06:25:09 11° SSE 06:25:09 11° SSE
Meteor 2-6 Rocket 4.3 06:21:44 10° S 06:27:19 51° ESE 06:29:55 29° NE
Aureole 1 Rocket 4.0 06:19:41 10° SSW 06:27:26 75° ESE 06:33:26 10° NNE
Cosmos 2173 Rocket 4.4 06:21:26 10° SSW 06:27:49 67° W 06:34:03 10° N
Cosmos 2016 Rocket 3.9 06:22:47 10° S 06:29:04 84° E 06:35:22 10° N
CZ-2D R/B 3.3 06:30:35 46° S 06:31:39 77° WSW 06:35:29 10° NNW
Cosmos 1802 Rocket 4.2 06:28:37 10° S 06:35:06 76° W 06:41:32 10° N
Cosmos 2233 Rocket 4.0 06:31:42 10° S 06:37:56 60° ESE 06:44:09 10° NNE
Cosmos 1992 Rocket 3.9 06:33:17 10° NNW 06:38:34 88° ENE 06:40:26 42° SSE
Cosmos 1864 Rocket 4.5 06:36:00 10° S 06:42:13 83° W 06:48:23 10° N
USA 308 3.7 06:38:11 10° SW 06:41:25 41° SSW 06:41:25 41° SSW
SL-08 R/B 4.4 06:39:09 10° S 06:45:30 87° W 06:51:41 10° N
Cosmos 1812 3.6 06:48:06 10° SSW 06:51:53 49° W 06:55:36 10° NNW
ATLAS 3B CENTAUR R/B 4.3 06:47:12 10° NW 06:52:12 17° N 06:54:28 14° NNE
Cosmos 1503 Rocket 4.2 06:50:19 10° SSW 06:54:36 58° S 06:54:36 58° S
H-2A R/B 2.8 06:51:12 10° S 06:56:02 48° WSW 07:00:46 10° NW
GEOS 3 Rocket 3.6 06:59:07 74° SSE 06:59:35 83° SW 07:04:50 10° NW
Cosmos 1980 Rocket 2.3 06:54:00 10° SSW 06:59:38 70° WNW 07:02:06 34° N
SMAP 4.4 06:56:23 12° S 07:00:21 39° WSW 07:04:42 10° NW
Cosmos 2369 4.2 06:57:22 10° SSW 07:03:00 58° WNW 07:07:17 17° N
Lacrosse 5 3.5 07:00:55 10° SW 07:03:56 24° S 07:03:56 24° S
Cosmos 2322 Rocket 4.0 07:00:43 10° S 07:02:36 19° S 07:02:36 19° S
ARGOS 3.2 07:04:57 51° S 07:06:19 75° WSW 07:11:43 10° NNW
USA 305 4.3 07:02:51 10° SW 07:05:15 33° SW 07:05:15 33° SW
Cosmos 2082 Rocket 2.4 07:01:32 10° NW 07:07:10 69° WSW 07:08:06 58° S
ATLAS 2AS CENTAUR R/B 4.4 07:15:15 10° SW 07:21:27 32° WNW 07:27:55 10° N
SL-16 R/B 4.0 07:37:58 10° SSW 07:39:55 22° SSW 07:39:55 22° SSW
